Voltar ao catálogo

DELTA 1 DEB

AtivoUNKNOWN
NORAD 15540·DEBRIS·🇺🇸 United States

Lançado Jul 29, 1976 de Vandenberg Space Force Base

Loading…

Próximas Passagens (próximas 24 horas)

TLE

AtualizadoSource: Space-Track

Época: Sep 14, 2026, 18:41 UTC

1 15540U 76077EU  26257.77879948 -.00000118  00000-0 -92807-3 0  9994
2 15540 102.7152 199.4367 0561583 252.9821 129.4588 11.68257855509516

Acompanhe DELTA 1 DEB em tempo real com AllMySat

Download on the App Store